Skip Page Navigation
NASA JPL Caltech
NASA Logo - Jet Propulsion Laboratory + View the NASA Portal
+ Center for Near-Earth Object Studies
JPL Home Earth Solar System Stars & Galaxies Technology
JPL Solar System Dynamics
BODIES ORBITS EPHEMERIDES TOOLS PHYSICAL DATA DISCOVERY FAQ SITE MAP
IMPORTANT: The SSD Announcement email list is now available. Major changes are coming in the near future, including possible hostname and/or URL changes. To be notified of such changes, subscribe to this email list.

Please visit this page for more details.


JPL Small-Body Database Browser
Search: [ help ]  
266373 (2007 EG83)
Classification: Main-belt Asteroid          SPK-ID: 2266373
Ephemeris | Orbit Diagram | Orbital Elements | Mission Design | Physical Parameters | Discovery Circumstances ]

[ show orbit diagram ]
Orbital Elements at Epoch 2458600.5 (2019-Apr-27.0) TDB
Reference: JPL 13 (heliocentric ecliptic J2000)
 Element Value Uncertainty (1-sigma)   Units 
e .1499529211955056 5.2194e-08  
a 2.624217472484215 1.5854e-08 au
q 2.23070839663292 1.4136e-07 au
i 12.43514581545048 5.1893e-06 deg
node 158.7056265632615 2.7971e-05 deg
peri 309.5043826055301 3.4124e-05 deg
M 356.6786684652351 1.9945e-05 deg
tp 2458614.825437334926
(2019-May-11.32543733)
8.6064e-05 TDB
period 1552.737926519181
4.25
1.4071e-05
3.852e-08
d
yr
n .2318485263041283 2.1011e-09 deg/d
Q 3.017726548335509 1.8232e-08 au
  Orbit Determination Parameters
   # obs. used (total)      280  
   data-arc span      6267 days (17.16 yr)  
   first obs. used      2001-11-11  
   last obs. used      2019-01-08  
   planetary ephem.      DE431  
   SB-pert. ephem.      SB431-N16  
   condition code      0  
   norm. resid. RMS      .57261  
   source      ORB  
   producer      Otto Matic  
   solution date      2019-Jul-14 08:59:57  

Additional Information
 Earth MOID = 1.26864 au 
 Jupiter MOID = 2.12942 au 
 T_jup = 3.354 
[ show covariance matrix ]

Ephemeris | Orbit Diagram | Orbital Elements | Mission Design | Physical Parameters | Discovery Circumstances ]

Physical Parameter Table
Parameter Symbol Value Units Sigma Reference Notes
absolute magnitude H 16.4   n/a MPO418413  

266373 (2007 EG83)          Discovered 2007-Mar-12 by Spacewatch at Kitt Peak
Reference: 20110218/Numbers.arcLast Updated: 2011-02-22
Ephemeris | Orbit Diagram | Orbital Elements | Mission Design | Physical Parameters | Discovery Circumstances ]
ABOUT SSD CREDITS/AWARDS PRIVACY/COPYRIGHT GLOSSARY LINKS
FirstGov 2019-Dec-11 17:10 UT
(server date/time)  
NASA Home Page
Site Manager:   Ryan S. Park
Webmaster  Alan B. Chamberlin